Location: Hermaringen
(48.5952°N, 10.2585°E)
Time: 09:31:27
(UTC+00:00)

A-11 Canister half - Pass Details

Date: 22 February 2026
Orbit: 1513 x 1687 km, 47.2° (Epoch: 11 March)

Event Time Altitude Azimuth Distance (km) Brightness Sun altitude
Rises 23:03:29 0° 279° (W) 4,931 11.8 -50.8°
Reaches altitude 10° 23:06:40 10° 278° (W) 3,930 11.2 -50.9°
Enters shadow 23:07:20 12° 278° (W) 3,727 11.1 -51.0°
